Date String (YYYY-MM-DD hh:mm:ss) UTC,Instrument flags,absolute air pressure of the measurement (hPa),sample flow rate (lpm),inlet stack bypass flow (lpm),air temperature of the measurement (°C),ambient temperature measured by the external sensor (°C),aerosol sample conditioner tube jacket temperature (°C),OPC LED temperature (°C),internal box temperature (°C),relative humidity of the measurement (%),span deviation,mass concentration of particles derived from Lorenz-Mie calculation of OPC scattering (μg/m³),mass concentration of particles derived from Lorenz-Mie calculation of OPC scattering (μg/m³),mass concentration of particles derived from Lorenz-Mie calculation of OPC scattering (μg/m³)
DateTimeUTC,F1_M11,P_M11,Q1_M11,Q2_M11,T1_M11,T2_M11,T3_M11,T4_M11,T5_M11,U1_M11,ZSPAN_M11,X2_M11,X0_M11,X1_M11
2023-11-01 14:00:00,SystemResetWarning,0832.5,5.00,000.00,021.5,020.7,000.0,029.9,022.9,11.7,0000.0,0001.86,0002.95,0001.63
2023-11-01 14:01:00,SystemResetWarning,0832.5,5.00,000.00,021.5,020.7,000.0,029.9,022.9,11.7,0000.0,0001.85,0002.96,0001.60
2023-11-01 14:02:00,SystemResetWarning,0832.5,5.00,000.00,021.5,020.7,000.0,029.9,022.9,11.6,0000.0,0001.80,0002.50,0001.57
2023-11-01 14:03:00,SystemResetWarning,0832.5,5.00,000.00,021.5,020.7,000.0,029.9,022.9,11.5,0000.0,0001.74,0002.11,0001.53
2023-11-01 14:04:00,SystemResetWarning,0832.5,5.00,000.00,021.5,020.7,000.0,029.9,022.9,11.6,0000.0,0001.69,0002.04,0001.50
2023-11-01 14:05:00,SystemResetWarning,0832.5,5.00,000.00,021.5,020.6,000.0,029.9,022.9,11.7,0000.0,0001.66,0002.09,0001.47
2023-11-01 14:06:00,SystemResetWarning,0832.5,5.00,000.00,021.5,020.6,000.0,029.9,022.9,11.7,0000.0,0001.66,0002.13,0001.47
2023-11-01 14:07:00,SystemResetWarning,0832.5,4.99,000.00,021.5,020.6,000.0,029.9,022.9,11.4,0000.0,0001.68,0002.21,0001.46
2023-11-01 14:08:00,SystemResetWarning,0832.5,5.00,000.00,021.5,020.6,000.0,029.9,022.9,11.5,0000.0,0001.68,0002.21,0001.47
2023-11-01 14:09:00,SystemResetWarning,0832.5,5.00,000.00,021.5,020.6,000.0,029.9,022.9,11.4,0000.0,0001.67,0002.18,0001.47
2023-11-01 14:10:00,SystemResetWarning,0832.5,4.99,000.00,021.5,020.6,000.0,029.9,022.9,11.3,0000.0,0001.67,0002.18,0001.47
2023-11-01 14:11:00,SystemResetWarning,0832.5,5.00,000.00,021.5,020.6,000.0,029.9,022.9,11.2,0000.0,0001.66,0002.20,0001.47
2023-11-01 14:12:00,SystemResetWarning,0832.5,5.00,000.00,021.5,020.6,000.0,029.9,022.9,11.4,0000.0,0001.69,0002.31,0001.51
2023-11-01 14:13:00,SystemResetWarning,0832.6,5.00,000.00,021.5,020.6,000.0,029.9,022.9,11.4,0000.0,0001.70,0002.90,0001.54
2023-11-01 14:14:00,SystemResetWarning,0832.6,5.01,000.00,021.5,020.6,000.0,029.9,023.0,11.8,0000.0,0001.72,0003.92,0001.56
2023-11-01 14:15:00,SystemResetWarning,0832.5,5.01,000.00,021.5,020.6,000.0,029.9,023.0,11.8,0000.0,0001.76,0004.63,0001.58
2023-11-01 14:16:00,SystemResetWarning,0832.5,5.00,000.00,021.5,020.6,000.0,029.9,022.9,11.7,0000.0,0001.75,0004.65,0001.58
2023-11-01 14:17:00,SystemResetWarning,0832.5,5.00,000.00,021.5,020.6,000.0,029.9,022.9,11.7,0000.0,0001.73,0004.57,0001.56
2023-11-01 14:18:00,SystemResetWarning,0832.5,5.01,000.00,021.5,020.6,000.0,029.9,022.9,11.7,0000.0,0001.69,0004.50,0001.53
2023-11-01 14:19:00,SystemResetWarning,0832.5,5.00,000.00,021.5,020.6,000.0,029.9,022.9,11.6,0000.0,0001.65,0004.43,0001.50
2023-11-01 14:20:00,SystemResetWarning,0832.5,5.00,000.00,021.5,020.6,000.0,029.9,022.9,11.5,0000.0,0001.64,0004.42,0001.49
2023-11-01 14:21:00,SystemResetWarning,0832.5,5.00,000.00,021.5,020.6,000.0,029.9,022.9,11.4,0000.0,0001.65,0004.52,0001.50
2023-11-01 14:22:00,SystemResetWarning,0832.5,5.00,000.00,021.5,020.6,000.0,029.9,022.9,11.5,0000.0,0001.65,0004.51,0001.49
2023-11-01 14:23:00,SystemResetWarning,0832.5,5.00,000.00,021.5,020.6,000.0,029.9,022.9,12.0,0000.0,0001.63,0004.58,0001.49
2023-11-01 14:24:00,SystemResetWarning,0832.5,5.00,000.00,021.5,020.6,000.0,029.9,022.9,11.6,0000.0,0001.65,0004.63,0001.50
2023-11-01 14:25:00,SystemResetWarning,0832.5,4.99,000.00,021.5,020.7,000.0,029.9,022.9,12.1,0000.0,0001.70,0003.16,0001.53
2023-11-01 14:26:00,SystemResetWarning,0832.5,5.00,000.00,021.5,020.6,000.0,029.9,022.9,12.0,0000.0,0001.69,0002.62,0001.55
2023-11-01 14:27:00,SystemResetWarning,0832.6,4.99,000.00,021.5,020.7,000.0,029.9,023.0,11.6,0000.0,0001.72,0002.38,0001.58
2023-11-01 14:28:00,SystemResetWarning,0832.5,5.00,000.00,021.6,020.6,000.0,029.9,023.0,11.5,0000.0,0001.78,0002.43,0001.62
2023-11-01 14:29:00,SystemResetWarning,0832.5,5.00,000.00,021.5,020.6,000.0,029.9,023.0,11.5,0000.0,0001.83,0002.52,0001.66
2023-11-01 14:30:00,SystemResetWarning,0832.5,5.01,000.00,021.5,020.6,000.0,029.9,023.0,11.7,0000.0,0001.88,0002.59,0001.71
2023-11-01 14:31:00,SystemResetWarning,0832.5,5.00,000.00,021.6,020.6,000.0,029.9,023.0,12.0,0000.0,0001.93,0002.68,0001.74
2023-11-01 14:32:00,SystemResetWarning,0832.6,5.00,000.00,021.6,020.7,000.0,029.9,023.0,12.4,0000.0,0001.95,0002.61,0001.75
2023-11-01 14:33:00,SystemResetWarning,0832.7,4.99,000.00,021.6,020.7,000.0,029.9,023.0,12.2,0000.0,0001.99,0002.63,0001.77
2023-11-01 14:34:00,SystemResetWarning,0832.6,5.00,000.00,021.6,020.7,000.0,029.9,023.0,13.1,0000.0,0002.03,0002.59,0001.79
2023-11-01 14:35:00,SystemResetWarning,0832.7,5.00,000.00,021.6,020.7,000.0,030.0,023.0,12.4,0000.0,0002.04,0002.78,0001.79
2023-11-01 14:36:00,SystemResetWarning,0832.7,5.00,000.00,021.6,020.7,000.0,030.0,023.0,12.2,0000.0,0002.05,0002.94,0001.79
2023-11-01 14:37:00,SystemResetWarning,0832.7,5.00,000.00,021.6,020.7,000.0,030.0,023.0,11.9,0000.0,0002.10,0003.11,0001.80
2023-11-01 14:38:00,SystemResetWarning,0832.7,5.00,000.00,021.6,020.7,000.0,030.0,023.0,12.1,0000.0,0002.10,0003.18,0001.79
2023-11-01 14:39:00,SystemResetWarning,0832.7,5.00,000.00,021.6,020.7,000.0,030.0,023.0,11.8,0000.0,0002.08,0003.16,0001.77
2023-11-01 14:40:00,SystemResetWarning,0832.7,5.00,000.00,021.6,020.7,000.0,030.0,023.0,12.0,0000.0,0002.06,0003.11,0001.76
2023-11-01 14:41:00,SystemResetWarning,0832.7,5.00,000.00,021.6,020.7,000.0,030.0,023.1,11.6,0000.0,0002.04,0003.08,0001.75
2023-11-01 14:42:00,SystemResetWarning,0832.7,5.00,000.00,021.6,020.7,000.0,030.0,023.0,11.8,0000.0,0002.03,0003.07,0001.73
2023-11-01 14:43:00,SystemResetWarning,0832.7,5.00,000.00,021.6,020.7,000.0,030.0,023.0,11.6,0000.0,0002.02,0003.13,0001.70
2023-11-01 14:44:00,SystemResetWarning,0832.7,5.00,000.00,021.6,020.7,000.0,030.0,023.0,11.4,0000.0,0001.96,0003.07,0001.66
2023-11-01 14:45:00,SystemResetWarning,0832.7,5.00,000.00,021.6,020.7,000.0,030.0,023.0,11.6,0000.0,0001.89,0002.97,0001.61
2023-11-01 14:46:00,SystemResetWarning,0832.8,5.00,000.00,021.6,020.7,000.0,030.0,023.0,11.4,0000.0,0001.82,0002.72,0001.56
2023-11-01 14:47:00,SystemResetWarning,0832.8,5.00,000.00,021.6,020.7,000.0,030.0,023.1,11.3,0000.0,0001.74,0002.38,0001.50
2023-11-01 14:48:00,SystemResetWarning,0832.8,5.00,000.00,021.6,020.7,000.0,030.0,023.1,11.2,0000.0,0001.66,0002.33,0001.46
2023-11-01 14:49:00,SystemResetWarning,0832.8,5.01,000.00,021.6,020.7,000.0,030.0,023.0,11.4,0000.0,0001.60,0002.17,0001.42
2023-11-01 14:50:00,SystemResetWarning,0832.8,5.00,000.00,021.6,020.7,000.0,030.0,023.1,11.4,0000.0,0001.62,0002.55,0001.42
2023-11-01 14:51:00,SystemResetWarning,0832.8,5.00,000.00,021.6,020.7,000.0,030.0,023.1,11.3,0000.0,0001.64,0003.18,0001.43
2023-11-01 14:52:00,SystemResetWarning,0832.8,5.00,000.00,021.7,020.7,000.0,030.0,023.1,11.7,0000.0,0001.66,0003.21,0001.43
2023-11-01 14:53:00,SystemResetWarning,0832.8,5.01,000.00,021.7,020.8,000.0,030.0,023.1,12.3,0000.0,0001.65,0003.17,0001.44
2023-11-01 14:54:00,SystemResetWarning,0832.8,5.00,000.00,021.7,020.8,000.0,030.0,023.1,12.3,0000.0,0001.62,0004.44,0001.45
2023-11-01 14:55:00,SystemResetWarning,0833.1,5.00,000.00,021.7,020.8,000.0,030.0,023.1,12.1,0000.0,0001.64,0004.48,0001.46
2023-11-01 14:56:00,SystemResetWarning,0833.2,4.99,000.00,021.7,020.8,000.0,030.0,023.1,12.2,0000.0,0001.66,0005.20,0001.47
2023-11-01 14:57:00,SystemResetWarning,0833.2,4.99,000.00,021.7,020.8,000.0,030.0,023.1,12.3,0000.0,0001.68,0005.40,0001.49
2023-11-01 14:58:00,SystemResetWarning,0833.3,4.99,000.00,021.7,020.8,000.0,030.0,023.1,12.8,0000.0,0001.73,0005.50,0001.50
2023-11-01 14:59:00,SystemResetWarning,0833.2,5.00,000.00,021.7,020.8,000.0,030.0,023.1,12.8,0000.0,0001.76,0005.40,0001.52
